Regional Weather Roundup
Issued by NWS

Home | Current Version | Previous Version | Graphics & Text | Print | Product List | Glossary Off
Versions: 1 2 3 4 5 6 7 8 9 10 11 12 13 14 15 16 17 18 19 20 21 22 23 24 25 26 27 28 29 30 31 32 33 34 35 36 37 38 39 40 41 42 43 44 45 46 47 48 49 50

000
ASUS43 KDMX 161607
RWRIA

WEATHER ROUNDUP FOR IOWA
NATIONAL WEATHER SERVICE DES MOINES IA
1100 AM CDT TUE SEP 16 2014

NOTE: "FAIR" INDICATES FEW OR NO CLOUDS BELOW 12,000 FEET WITH NO
SIGNIFICANT WEATHER AND/OR OBSTRUCTIONS TO VISIBILITY.

* - THESE STATIONS ARE NOT NWS STATIONS...THUS NOT UNDER NWS
QUALITY CONTROL.  THEY ALSO DO NOT REPORT WEATHER SUCH
AS PRECIPITATION OR FOG.

IAZ001>003-012>014-020>022-031>034-043>046-161700-
   NORTHWEST IOWA

CITY           SKY/WX    TMP DP  RH WIND       PRES   REMARKS
CARROLL *      SUNNY     59  45  58 S9        30.21F
CHEROKEE *     SUNNY     57  48  72 SW9       30.20F
DENISON *      MOSUNNY   59  46  63 VRB7G13   30.20F
LE MARS *      SUNNY     59  48  67 S12G18    30.19F
ORANGE CITY *  SUNNY     59  45  58 S15       30.18F
SHELDON *      SUNNY     57  46  67 S15       30.18F
SIOUX CITY     SUNNY     60  45  57 S15G22    30.20F
SPENCER        SUNNY     59  42  53 SW14      30.19F
STORM LAKE *   SUNNY     59  50  72 SW14      30.20F
$$

IAZ055>058-069>071-079>083-090>094-161700-
   SOUTHWEST IOWA

CITY           SKY/WX    TMP DP  RH WIND       PRES   REMARKS
ATLANTIC *     SUNNY     59  46  63 S8G14     30.22F
AUDUBON *        N/A    N/A N/A N/A MISG      30.23F
CLARINDA *     MOSUNNY   61  46  59 SE7       30.24F
COUNCIL BLFS * MOSUNNY   59  48  67 S12       30.21F
CRESTON *      MOSUNNY   59  46  63 SE8       30.23F
HARLAN  *      SUNNY     59  46  63 S9        30.25F
LAMONI         SUNNY     58  44  60 SE6       30.23F
SHENANDOAH *   SUNNY     61  48  63 SE8       30.23F
$$

IAZ047>049-059>061-072>074-084-161700-
   CENTRAL IOWA

CITY           SKY/WX    TMP DP  RH WIND       PRES   REMARKS
AMES           SUNNY     59  47  64 SW6       30.22F
ANKENY *       SUNNY     59  46  63 MISG      30.23F
CHARITON *     SUNNY     59  45  58 E7        30.23F
DES MOINES     MOSUNNY   60  47  61 S6        30.23F
GRINNELL*      SUNNY     59  45  58 SW5       30.23F
KNOXVILLE *    SUNNY     59  46  63 CALM      30.22F
MARSHALLTOWN   SUNNY     59  44  57 SW7       30.22F
PELLA *        SUNNY     63  46  55 SE3       30.24F
PERRY *          N/A     61  46  59 S5        30.22F
$$

IAZ004>006-015-016-023>025-035-036-161700-
   NORTH CENTRAL IOWA

CITY           SKY/WX    TMP DP  RH WIND       PRES   REMARKS
ALGONA *       SUNNY     59  43  55 SW9       30.20F
CLARION *        N/A     59  43  55 SW9       30.21F
ESTHERVILLE    SUNNY     58  41  53 SW15G21   30.19F
FORT DODGE *   SUNNY     61  45  55 SW8       30.22F
MASON CITY     SUNNY     59  44  57 SW10      30.22F
FOREST CITY *  SUNNY     59  45  58 SW10      30.20F
IOWA FALLS *     N/A     59  41  51 W5        30.23F
$$

IAZ007>011-017>019-026>030-037>042-050>054-066-161700-
   NORTHEAST IOWA

CITY           SKY/WX    TMP DP  RH WIND       PRES   REMARKS
CEDAR RAPIDS   SUNNY     59  46  62 VRB3      30.23F
CHARLES CITY * SUNNY     59  43  55 SW8       30.22F
CLINTON *      SUNNY     57  43  58 CALM      30.26F
DECORAH *      SUNNY     57  45  62 VRB5      30.20F
DUBUQUE        SUNNY     58  40  51 VRB5      30.23F
MONTICELLO *   SUNNY     59  41  51 CALM      30.23F
OELWEIN *      SUNNY     59  43  55 W7        30.23F
WATERLOO       SUNNY     60  44  55 SW9       30.22F
$$

IAZ064-065-067-068-078-161700-
   EAST CENTRAL IOWA

CITY           SKY/WX    TMP DP  RH WIND       PRES   REMARKS
DAVENPORT      SUNNY     59  41  51 VRB3      30.24F
IOWA CITY      MOSUNNY   59  48  67 CALM      30.25F
MT. PLEASANT * MOSUNNY   63  45  51 E3        30.24F
MUSCATINE *    SUNNY     59  45  58 CALM      30.24F
QUAD CITIES    SUNNY     60  45  57 CALM      30.24F
$$

IAZ062-063-075>077-085>089-095>099-161700-
   SOUTHEAST IOWA

CITY           SKY/WX    TMP DP  RH WIND       PRES   REMARKS
BURLINGTON     SUNNY     60  47  61 E5        30.24S
FAIRFIELD *    SUNNY     59  43  55 CALM      30.24F
FORT MADISON * MOSUNNY   63  46  55 CALM      30.24F
KEOKUK *       SUNNY     61  48  63 E5        30.23F
OSKALOOSA *      N/A     59  48  67 CALM      30.24F
CENTERVILLE *  SUNNY     59  46  63 CALM      30.25F
OTTUMWA        SUNNY     59  47  64 CALM      30.24S
WASHINGTON *   SUNNY     61  45  55 CALM      30.24F
$$

ABBREVIATIONS USED IN REMARKS
   TC - TEMPERATURES IN CELSIUS
  WCI - WIND CHILL INDEX
   HX - HEAT INDEX
  VSB - VISIBILITY
$$




USA.gov is the U.S. government's official web portal to all federal, state and local government web resources and services.